Regional Weather Roundup
Issued by NWS

Home | Current Version | Previous Version | Graphics & Text | Print | Product List | Glossary On
Versions: 1 2 3 4 5 6 7 8 9 10 11 12 13 14 15 16 17 18 19 20 21 22 23 24 25 26 27 28 29 30 31 32 33 34 35 36 37 38 39 40 41 42 43 44 45 46 47 48 49 50
375
ASUS43 KMPX 072201
RWRMN
WEATHER ROUNDUP FOR MINNESOTA
NATIONAL WEATHER SERVICE TWIN CITIES/CHANHASSEN MN
400 PM CST WED DEC 07 2016


NOTE: "FAIR" INDICATES FEW OR NO CLOUDS BELOW 12,000 FEET WITH NO
SIGNIFICANT WEATHER AND/OR OBSTRUCTIONS TO VISIBILITY. N/A MEANS
CURRENT SKY AND/OR WEATHER CONDITIONS ARE NOT AVAILABLE.

MNZ060>063-068>070-072300-
   Twin Cities Metro

CITY           SKY/WX    TMP DP  RH WIND       PRES   REMARKS
TWIN CITIES    FLURRIES  20   9  62 W18       30.07  WCI   5
ST PAUL        FLURRIES  20  11  68 W18G26    30.09  WCI   5
CRYSTAL        CLOUDY    19   7  59 W16G22    30.06  WCI   4
BLAINE         MOCLDY    19  10  68 W16G30    30.04  WCI   5
LAKEVILLE      LGT SNOW  18  12  79 W23G32    30.08R WCI   0
EDEN PRAIRIE   FLURRIES  20   9  62 W16G29    30.08  WCI   6
SOUTH ST PAUL  CLOUDY    21  10  64 W10G20    30.07R WCI  10
LAKE ELMO      MOCLDY    21  12  68 W16G23    30.06R WCI   7
$$
MNZ001>005-007-008-013>017-022>024-027-028-072300-
   Northwest Minnesota

CITY           SKY/WX    TMP DP  RH WIND       PRES   REMARKS
BEMIDJI        LGT SNOW  17  14  87 W18       29.90R WCI   1
HALLOCK          N/A     25  21  86 N20       30.00R WCI  11
ROSEAU         LGT SNOW  25  19  80 NW13      29.92R WCI  13
WARROAD        LGT SNOW  25  19  80 NW14G21   29.90R WCI  13
THIEF RVR FALL LGT SNOW  20  18  92 NW17G25   29.97R FOG     WCI   5
CROOKSTON      LGT SNOW  19  18  93 NW26G32   30.02R VSB 3/4 WCI   1
FOSSTON        LGT SNOW  16  14  93 W20G26    29.96R WCI  -1
DETROIT LAKES  LGT SNOW  16  12  86 W13       30.02R WCI   2
MOORHEAD       MIX PCPN  16  10  79 W23G29    30.09R WCI  -2
PARK RAPIDS    LGT SNOW  15   8  73 W20       29.95  WCI  -2
$$
MNZ006-009>011-018-025>026-072300-
   North Central Minnesota

CITY           SKY/WX    TMP DP  RH WIND       PRES   REMARKS
BAUDETTE       LGT SNOW  25  22  88 NW17      29.84R VSB 3/4 WCI  12
FLAG ISLAND    CLOUDY    25  19  80 N18       29.87R WCI  11
INTL FALLS     LGT SNOW  23  19  85 N12G24    29.80  VSB 3/4 WCI  12
BIG FORK       LGT SNOW  19  16  86 SW12      29.82R WCI   7
LONGVILLE      LGT SNOW  18  10  73 W14G22    29.91R WCI   4
GRAND RAPIDS   LGT SNOW  18  13  80 W16G24    29.88R WCI   3
CRANE LAKE     LGT SNOW  21  19  93 W3        29.76R
ORR            MIX PCPN  21  16  79 W13G18    29.74R WCI   9
COOK           LGT SNOW  19  16  86 W16       29.79R WCI   5
$$
MNZ012-019>021-037-072300-
   Northeast Minnesota

CITY           SKY/WX    TMP DP  RH WIND       PRES   REMARKS
DULUTH         LGT SNOW  18  13  80 W20G26    29.83R BLWGSNOWWCI   2
ELY            LGT SNOW  19  16  86 W13G20    29.74R WCI   7
HIBBING        LGT SNOW  16  13  88 W13G21    29.82  VSB 3/4 WCI   2
EVELETH        LGT SNOW  19  14  84 SW16      29.82R WCI   4
DULUTH HARBOR  FLURRIES  23  16  74 W22       29.90R WCI   8
TWO HARBORS    LGT SNOW  21  14  73 W16G23    29.80R WCI   7
SILVER BAY     LGT SNOW  21  16  79 W8G17     29.77R WCI  12
GRAND MARAIS     N/A     28  22  78 W13       29.73  WCI  17
G MARAIS ARPRT LGT SNOW  19  14  79 W6        29.65R WCI  11
$$
MNZ029>031-032-039>041-046>048-054>057-064-072300-
   West Central Minnesota

CITY           SKY/WX    TMP DP  RH WIND       PRES   REMARKS
FERGUS FALLS   LGT SNOW  12   9  85 NW24G30   30.14R VSB 3/4 WCI  -8
WHEATON        CLOUDY    16  10  79 W21G29    30.17R WCI  -2
MORRIS         LGT SNOW  14   9  79 W26G33    30.12R WCI  -6
ALEXANDRIA     LGT SNOW  13   9  84 W22G36    30.06R VSB 1   WCI  -6
ELBOW LAKE     LGT SNOW  12   9  88 NW18      30.11R VSB 3/4 WCI  -5
WADENA         LGT SNOW  12   7  79 W14G25    30.00R WCI  -3
GLENWOOD       LGT SNOW  12   9  85 W20G28    30.07R WCI  -6
APPLETON       CLOUDY    18   9  68 NW22G31   30.16R WCI   0
BENSON         FLURRIES  16   7  67 NW25G32   30.14R WCI  -3
ORTONVILLE     CLOUDY    14   5  67 NW22G31   30.17R WCI  -4
MADISON        CLOUDY    18   7  62 W26G35    30.20R WCI  -1
WILLMAR        FLURRIES  18  10  73 W24G31    30.13R WCI   0
$$
MNZ033>034-036-042>043-049>051-058-059-072300-
   Central Minnesota

CITY           SKY/WX    TMP DP  RH WIND       PRES   REMARKS
ST CLOUD       LGT SNOW  16   7  67 W21G31    30.05  WCI  -1
PAYNESVILLE    MOCLDY    15   8  73 W22G31    30.09R WCI  -3
AITKIN         FLURRIES  18   9  68 W14G26    29.92R WCI   4
PINE RIVER     LGT SNOW  16   9  73 W8G18     29.98R WCI   5
BRAINERD       FLURRIES  15   8  73 W20G29    29.97  WCI  -2
STAPLES        FLURRIES  12   9  85 W20G25    30.00R WCI  -6
LONG PRAIRIE   LGT SNOW  14   9  79 W15G26    30.05R WCI  -1
LITTLE FALLS   CLOUDY    18   9  68 W14G25    30.03R WCI   4
LITCHFIELD     FLURRIES  18  10  73 W18G25    30.10R WCI   2
BUFFALO        FLURRIES  18   9  67 W17G26    30.09R WCI   3
MAPLE LAKE     MOCLDY    18  11  73 W12G21    30.08R WCI   5
HUTCHINSON     CLOUDY    19  11  71 W26G36    30.11R WCI   0
$$
MNZ037-044-045-052-053-072300-
   East Central Minnesota

CITY           SKY/WX    TMP DP  RH WIND       PRES   REMARKS
PRINCETON      FLURRIES  18   9  68 W17G28    30.03R WCI   2
MORA           MOCLDY    18   9  68 W15G25    30.00R WCI   3
CAMBRIDGE      FLURRIES  19   9  63 W14G22    30.01R WCI   6
RUSH CITY      CLOUDY    18  10  73 W15G23    30.01R WCI   3
MOOSE LAKE     FLURRIES  19  10  68 W9G22     29.91R WCI   9
HINCKLEY       FLURRIES  19  12  73 W14G24    29.97R WCI   6
CLOQUET        FLURRIES  18  10  73 W14G23    29.87R WCI   4
MCGREGOR       CLOUDY    19  12  73 W14G22    29.92R WCI   6
$$
MNZ071>073-080-081-089-090-097-098-072300-
   Southwest Minnesota

CITY           SKY/WX    TMP DP  RH WIND       PRES   REMARKS
MONTEVIDEO     CLOUDY    18   7  62 NW20G29   30.18R WCI   1
GRANITE FALLS  CLOUDY    18  10  70 W25G35    30.19R WCI   0
CANBY          MOCLDY    16   6  66 NW24G35   30.21R WCI  -2
MARSHALL       PTCLDY    15   6  67 NW31G38   30.17  WCI  -6
REDWOOD FALLS  CLOUDY    18   7  62 NW21G35   30.16  WCI   1
OLIVIA         LGT SNOW  19  12  73 W23G31    30.13R WCI   2
PIPESTONE      PTCLDY    16   7  67 NW21G32   30.18R WCI  -2
WINDOM         CLEAR     19   9  63 W25       30.14S WCI   2
WORTHINGTON    PTCLDY    17   8  67 W28G36    30.18  WCI  -2
JACKSON        CLEAR     19   9  63 W25G33    30.15R WCI   2
TRACY          PTCLDY    18  10  68 W16G29    30.18R WCI   4
SLAYTON        CLEAR     16   8  71 W24G32    30.15R WCI  -2
$$
MNZ065>067-074>077-082>085-091>093-072300-
   South Central Minnesota

CITY           SKY/WX    TMP DP  RH WIND       PRES   REMARKS
MANKATO        FLURRIES  19  10  68 W22G30    30.12  WCI   2
NEW ULM        CLOUDY    19   9  63 W26G35    30.14R WCI   1
ST JAMES       MOCLDY    19  10  68 W20       30.16R WCI   4
FAIRMONT       CLEAR     21  10  62 W23G32    30.16  WCI   5
GLENCOE        CLOUDY    20  14  78 W23G31    30.10R WCI   3
FARIBAULT      FLURRIES  19  10  68 W18G28    30.10R WCI   4
OWATONNA       FLURRIES  19  10  68 W21G30    30.10R WCI   3
WASECA         CLOUDY    19  12  73 W24       30.13R WCI   2
ALBERT LEA     CLOUDY    25  14  63 NW12G28   30.11R WCI  14
$$
MNZ078>079-086>088-094>096-072300-
   Southeast Minnesota

CITY           SKY/WX    TMP DP  RH WIND       PRES   REMARKS
ROCHESTER      FLURRIES  19  12  74 W20       30.06  WCI   3
RED WING       CLOUDY    21   9  58 W13       30.07R WCI   9
STANTON        FLURRIES  21  12  68 W18G28    30.08R WCI   6
DODGE CENTER   FLURRIES  18  12  79 W15G23    30.07R WCI   3
WINONA         CLOUDY    21  12  68 W14       30.10R WCI   8
AUSTIN         CLOUDY    19  12  73 W20G26    30.10R WCI   4
PRESTON        CLOUDY    18  11  75 W15       30.09R WCI   3
$$
ABBREVIATIONS USED IN REMARKS
   TC - TEMPERATURES IN CELSIUS
  WCI - WIND CHILL INDEX
   HX - HEAT INDEX
  VSB - VISIBILITY
$$




USA.gov is the U.S. government's official web portal to all federal, state and local government web resources and services.